FENGYUN 1C DEB, 43213

Orbit data source: Space-Track

FENGYUN 1C DEB, 43213 is space debris in SSO originally from a launch on Mon, 10 May 1999 UTC launched from the Taiyaun Space Center, China (TSC). Fengyun 1C debris stems from the Chinese weather satellite Fengyun-1C, which was intentionally destroyed by a Chinese anti-satellite missile in 2007. This event dramatically increased the amount of space debris, with thousands of trackable fragments posing hazards to satellites and human spaceflight. The Fengyun 1C debris cloud has become a focal point in discussions about space sustainability and the need for international regulations to prevent the creation of new debris.

Loading next visibility...
Identifier
43213, 1999-025EYM
Orbit
SSO
Country
Flag of CNCN / PRC
Related business
Manufacturer
Unknown
Mission
Spacecraft
Bus & Motor
Unknown
Mass
Unknown
Launch date (UTC)
1999-05-10 (26 years ago)
Launch vehicle
Unknown
Launch site
Taiyaun Space Center, China (TSC)
Object type
Payload
Rocket body
Debris
Shape & HBR
Unknown shape, 0.1 m
Radar Cross Section
Small (<0.1 m²)

Expand to show TLE details & history
Last TLE update: 1 day ago

TLE from 1 day ago
0 FENGYUN 1C DEB
1 43213U 99025EYM 25287.10150121  .00004000  00000-0  17575-2 0  9994
2 43213  98.7387 351.9196 0054171  43.2117 317.3292 14.23303087395248
Epoch: 2025-10-14T02:26Z
TLE epoch observation values (Epoch: 2025-10-14T02:26:09.704Z)
Latitude
-0.00007°
Longitude
-67.51558°
Altitude
788.567 km
Speed
7.474 km/s
True Right ascension
23h 27m 40s
True Declination
0° 00' 00"
Sunlit
Object was in full shadow at epoch
Visualization orbit readout
Latitude
Unknown
Longitude
Unknown
Altitude
Unknown
Speed
Unknown
Apparent Right ascension
Unknown
Apparent Declination
Unknown
Sunlit
N/A
Visualization observer readout
Local Sidereal Time
21:19:24
Azimuth
Unknown
Elevation
Unknown
Doppler factor
Unknown
Orbital elements
Apogee altitude
850.305 km
Perigee altitude
772.413 km
Semi-major axis
7,189.496 km
Eccentricity
0.00542
Inclination
98.7387°
RAAN
351.9196°
Arg. of periapsis
43.2117°
True anomaly
316.90636°
Mean anomaly
317.3292°
Eccentric anomaly
317.11799°
Mean motion
3.56037 °/min
Orbital period
101.11 mins
BSTAR
0.0017575
Loading maneuver chart data...
Computing Atmospheric mass density...

Documentation

Showing up to 5 results
|